2024-169D

Last updated on Mon Oct 21 2024 00:02:04 GMT+0000 (Coordinated Universal Time)

1 61192U 24169D 24294.56537380 .00024674 00000+0 14826-2 0 9994 2 61192 97.5867 19.6810 0013311 167.9121 192.2431 15.10797741 4585
UTC large
Height (km)
Speed (km/s)
/
Latitude / Longitude
Inclination (degrees)
Orbital Period (minutes)
Azimuth
Elevation
Range (km)
Doppler Factor

Next 0 passes for location: London (51.5072 / 0.1276)

Sorry there are no passes over London.